Regional Weather Roundup
Issued by NWS

Home | Current Version | Previous Version | Text Only | Print | Product List | Glossary On
Versions: 1 2 3 4 5 6 7 8 9 10 11 12 13 14 15 16 17 18 19 20 21 22 23 24 25 26 27 28 29 30 31 32 33 34 35 36 37 38 39 40 41 42 43 44 45 46 47 48 49 50
000
ASUS43 KMPX 182310
RWRMN
WEATHER ROUNDUP FOR MINNESOTA
NATIONAL WEATHER SERVICE TWIN CITIES/CHANHASSEN MN
600 PM CDT SAT APR 18 2015


NOTE: "FAIR" INDICATES FEW OR NO CLOUDS BELOW 12,000 FEET WITH NO
SIGNIFICANT WEATHER AND/OR OBSTRUCTIONS TO VISIBILITY. N/A MEANS
CURRENT SKY AND/OR WEATHER CONDITIONS ARE NOT AVAILABLE.

MNZ060>063-068>070-190000-
   Twin Cities Metro

CITY           SKY/WX    TMP DP  RH WIND       PRES   REMARKS
TWIN CITIES    CLOUDY    70  35  27 NE14      29.92F
ST PAUL        CLOUDY    69  34  27 E14G23    29.93F
CRYSTAL        CLOUDY    70  33  25 E15G21    29.92F
BLAINE         CLOUDY    70  34  26 E14G21    29.94
LAKEVILLE      CLOUDY    70  41  35 E9        29.91S
EDEN PRAIRIE   CLOUDY    70  35  27 NE12      29.90F
SOUTH ST PAUL  CLOUDY    71  33  24 NE8       29.92F
LAKE ELMO      FAIR      68  36  30 E10G20    29.95F
$$
MNZ001>005-007-008-013>017-022>024-027-028-190000-
   Northwest Minnesota

CITY           SKY/WX    TMP DP  RH WIND       PRES   REMARKS
BEMIDJI        PTSUNNY   62  28  27 E9G17     29.97S
HALLOCK        PTSUNNY   66  19  16 S9G16     29.91F
ROSEAU         MOSUNNY   64  18  16 S9G16     29.95F
WARROAD        MOSUNNY   59  34  38 NE3       29.97F
THIEF RVR FALL CLOUDY    66  25  20 S6        29.93F
CROOKSTON      CLOUDY    70  28  21 S8        29.91F
FOSSTON        CLOUDY    66  27  22 S8        29.94F
DETROIT LAKES  PTSUNNY   68  32  26 SE13      29.93F
MOORHEAD       CLOUDY    72  27  18 E10       29.89F
PARK RAPIDS    MOSUNNY   68  27  21 SE12      29.94F
MAHNOMEN       FAIR      68  29  23 SE10      29.92S
$$
MNZ006-009>011-018-025>026-190000-
   North Central Minnesota

CITY           SKY/WX    TMP DP  RH WIND       PRES   REMARKS
BAUDETTE       PTSUNNY   62  20  19 S10       29.97F
FLAG ISLAND    MOSUNNY   57  21  24 E8        29.97F
INTL FALLS     PTSUNNY   61  16  17 SE14G28   30.01F
WASKISH        PTSUNNY   63  28  27 SE9       29.98F
BIG FORK       PTSUNNY   63  16  16 SE13G20   30.01F
LONGVILLE      MOSUNNY   63  30  29 SE7       29.98F
GRAND RAPIDS   MOSUNNY   59  28  31 SE9       30.02F
ORR            MOSUNNY   57   1  10 SE9G17    30.02F
COOK           SUNNY     59  12  15 SE13G18   30.05F
WALKER         FAIR      61  32  33 E6        29.96F
$$
MNZ012-019>021-037-190000-
   Northeast Minnesota

CITY           SKY/WX    TMP DP  RH WIND       PRES   REMARKS
DULUTH         SUNNY     47  30  51 E17G26    30.08F
ELY            SUNNY     55  10  16 SE13      30.08F
HIBBING        SUNNY     57  27  31 SE14      30.05F
EVELETH        SUNNY     57  27  30 SE13G21   30.07F
DULUTH HARBOR  SUNNY     39  36  87 NE23G31   30.11F
TWO HARBORS    SUNNY     48  34  57 NE15G22   30.10F
SILVER BAY     SUNNY     46  30  53 NE12G17   30.12F
GRAND MARAIS     N/A     41  30  65 NE14G22   30.18F
G MARAIS ARPRT SUNNY     46  12  25 E10       30.17F
$$
MNZ029>031-032-039>041-046>048-054>057-064-190000-
   West Central Minnesota

CITY           SKY/WX    TMP DP  RH WIND       PRES   REMARKS
FERGUS FALLS   CLOUDY    70  21  16 SE12G18   29.90S
WHEATON        CLOUDY    70  30  23 E16       29.88F
MORRIS         CLOUDY    72  28  20 E20       29.87F
ALEXANDRIA     CLOUDY    68  27  21 SE14G23   29.92F
ELBOW LAKE     FAIR      69  28  21 SE10      29.89S
WADENA         MOSUNNY   66  36  32 E12       29.93F
GLENWOOD       CLOUDY    68  28  22 E12       29.91F
APPLETON       CLOUDY    72  27  18 E16       29.86S HAZE
BENSON         CLOUDY    70  25  18 SE9G17    29.88F
ORTONVILLE     CLOUDY    72  28  20 E14       29.85F
MADISON        CLOUDY    70  45  40 S13       29.85F
WILLMAR        FAIR      70  32  24 E14       29.90S
$$
MNZ033>034-036-042>043-049>051-058-059-190000-
   Central Minnesota

CITY           SKY/WX    TMP DP  RH WIND       PRES   REMARKS
ST CLOUD       CLOUDY    68  29  23 E10       29.93F
SAUK CENTRE    FAIR      67  31  26 E12       29.92F
PAYNESVILLE    CLOUDY    65  31  27 NE10      29.91F
AITKIN         MOSUNNY   63  32  31 E9        29.98F
PINE RIVER     SUNNY     64  37  36 E13       30.00F
BRAINERD       MOSUNNY   63  31  30 E8        29.97F
STAPLES        MOSUNNY   66  28  24 E8        29.94F
LONG PRAIRIE   FAIR      64  32  29 E10       29.94F
LITTLE FALLS   PTSUNNY   66  30  26 E9        29.94F
LITCHFIELD     CLOUDY    70  30  23 E13G18    29.91F
BUFFALO        CLOUDY    68  31  25 E15       29.93F
MAPLE LAKE     CLOUDY    68  35  29 E12       29.93F
$$
MNZ037-044-045-052-053-190000-
   East Central Minnesota

CITY           SKY/WX    TMP DP  RH WIND       PRES   REMARKS
PRINCETON      CLOUDY    70  32  24 E8        29.95F
MORA           PTSUNNY   63  34  34 NE5G16    29.99S
CAMBRIDGE      CLOUDY    70  45  40 E7        29.94F
RUSH CITY      CLOUDY    68  32  26 SE9       29.97F
MOOSE LAKE     SUNNY     46  32  57 NE15G22   30.03S
HINCKLEY       FAIR      61  36  39 NE12      29.99F
CLOQUET        SUNNY     45  28  53 E17G25    30.07F
MCGREGOR       SUNNY     55  34  44 E12       30.02F
$$
MNZ071>073-080-081-089-090-097-098-190000-
   Southwest Minnesota

CITY           SKY/WX    TMP DP  RH WIND       PRES   REMARKS
MONTEVIDEO     CLOUDY    72  45  37 S9        29.88S
GRANITE FALLS  DRIZZLE   65  49  57 SE6       29.89S
CANBY          LGT RAIN  64  51  64 S8        29.87S
MARSHALL       CLOUDY    63  50  63 S13       29.88S
REDWOOD FALLS  CLOUDY    66  47  50 SW6       29.87F
OLIVIA         LGT RAIN  68  39  34 E9        29.87F
PIPESTONE      LGT RAIN  57  54  88 SE6       29.87F
WINDOM         CLOUDY    57  55  94 SW8       29.91R
WORTHINGTON    CLOUDY    55  52  88 E14       29.87F
JACKSON        RAIN      55  54  94 SE5       29.90F
TRACY          RAIN      59  56  90 S9        29.90R
SLAYTON        RAIN      55  55  97 E9        29.89F
$$
MNZ065>067-074>077-082>085-091>093-190000-
   South Central Minnesota

CITY           SKY/WX    TMP DP  RH WIND       PRES   REMARKS
MANKATO        CLOUDY    70  43  37 N3        29.89R
NEW ULM        LGT RAIN  66  46  48 CALM      29.88S
ST JAMES       LGT RAIN  61  52  72 E3        29.90S
FAIRMONT       CLOUDY    57  50  77 E13       29.88F
GLENCOE        CLOUDY    71  38  29 E10       29.88F
FARIBAULT      CLOUDY    72  39  30 E14       29.90F
OWATONNA       CLOUDY    72  39  30 E12       29.89F
ALBERT LEA     RAIN      59  57  94 SW7       29.91R
$$
MNZ078>079-086>088-094>096-190000-
   Southeast Minnesota

CITY           SKY/WX    TMP DP  RH WIND       PRES   REMARKS
ROCHESTER      CLOUDY    68  42  38 E20       29.92F
RED WING       PTSUNNY   72  36  26 SE13G18   29.91F
STANTON        CLOUDY    73  36  26 E14       29.90S
DODGE CENTER   CLOUDY    70  39  32 E20       29.91S
WINONA         PTSUNNY   70  37  30 SE10G18   29.95F
AUSTIN         CLOUDY    70  45  40 E18       29.88F
PRESTON        CLOUDY    68  39  34 E18       29.93F
$$
ABBREVIATIONS USED IN REMARKS
   TC - TEMPERATURES IN CELSIUS
  WCI - WIND CHILL INDEX
   HX - HEAT INDEX
  VSB - VISIBILITY
$$



USA.gov is the U.S. government's official web portal to all federal, state and local government web resources and services.